Rabat-Sale, Morocco

9:36 PM WEST on October 21, 2017 (GMT +0100)
Rabat-Sale

Weather History for GMME - April, 2014

Change the Weather History Date:

Thursday, April 10, 2014

  Actual Average Record
Temperature  
Mean Temperature 70 °F -  
Max Temperature 79 °F 68 °F 82 °F (2017)
Min Temperature 60 °F 51 °F 44 °F (2005)
Cooling Degree Days 4    
Growing Degree Days 20 (Base 50)    
Moisture  
Dew Point 59 °F    
Average Humidity 75    
Maximum Humidity 94    
Minimum Humidity 50    
Precipitation  
Precipitation 0.00 in 0.07 in - ()
Sea Level Pressure  
Sea Level Pressure 29.95 in    
Wind  
Wind Speed 3 mph ()    
Max Wind Speed 7 mph    
Max Gust Speed -    
Visibility 3.4 miles    
Events      
Averages and records for this station are not official NWS values.
T = Trace of Precipitation, MM = Missing Value Source: Averaged Metar Reports

Daily Weather History Graph

Daily Weather History Graph

Search for Another Location

Airport or City:

Trip Planner

Search our weather history database for the weather conditions in past years. The results will help you decide how hot, cold, wet, or windy it might be!

Date:

Astronomy

Apr. 10, 2014 Rise Set
Actual Time 7:02 AM WEST 7:54 PM WEST
Civil Twilight 6:37 AM WEST 8:20 PM WEST
Nautical Twilight 6:07 AM WEST 8:50 PM WEST
Astronomical Twilight 5:36 AM WEST 9:21 PM WEST
Moon 3:37 PM WEST (4/10) 4:05 AM WEST (4/10)
Length of Visible Light 13h 42m
Length of Day
12h 51m
Waxing Gibbous, 78% of the Moon is Illuminated
Apr 10
Waxing Gibbous
Apr 15
Full
Apr 22
Last Quarter
Apr 29
New
May 7
First Quarter

Hourly Weather History & Observations

Time (WEST) Temp. Dew Point Humidity Pressure Visibility Wind Dir Wind Speed Gust Speed Precip Events Conditions
12:00 AM 60.8 °F 57.2 °F 88% 29.98 in 3.1 mi South 2.3 mph - N/A   Scattered Clouds
12:30 AM 62.6 °F 59.0 °F 88% 29.98 in 3.1 mi South 3.5 mph - N/A   Scattered Clouds
1:00 AM 61 °F 58 °F 88% 29.99 in 3 mi South 2.3 mph - -   Partly Cloudy
1:00 AM 60.8 °F 59.0 °F 94% 29.98 in 3.1 mi Variable 2.3 mph - N/A   Scattered Clouds
2:00 AM 62.6 °F 59.0 °F 88% 29.98 in 3.1 mi Variable 2.3 mph - N/A   Scattered Clouds
3:00 AM 60.8 °F 59.0 °F 94% 29.95 in 3.1 mi South 3.5 mph - N/A   Scattered Clouds
4:00 AM 62 °F 58 °F 84% 29.95 in 3 mi SSE 3.5 mph - -   Scattered Clouds
4:00 AM 60.8 °F 59.0 °F 94% 29.95 in 3.1 mi SSE 3.5 mph - N/A   Scattered Clouds
5:00 AM 60.8 °F 59.0 °F 94% 29.95 in 3.1 mi SSE 3.5 mph - N/A   Scattered Clouds
5:30 AM 60.8 °F 59.0 °F 94% 29.95 in 3.1 mi SSE 3.5 mph - N/A   Scattered Clouds
6:00 AM 60.8 °F 59.0 °F 94% 29.95 in 3.1 mi SSE 3.5 mph - N/A   Scattered Clouds
6:30 AM 60.8 °F 59.0 °F 94% 29.95 in 3.1 mi SSE 3.5 mph - N/A   Scattered Clouds
7:00 AM 62 °F 58 °F 84% 29.95 in 3 mi SSE 3.5 mph - -   Scattered Clouds
7:00 AM 60.8 °F 59.0 °F 94% 29.95 in 3.1 mi SSE 3.5 mph - N/A   Scattered Clouds
7:30 AM 60.8 °F 59.0 °F 94% 29.95 in 3.1 mi SSE 3.5 mph - N/A   Scattered Clouds
8:00 AM 60.8 °F 59.0 °F 94% 29.95 in 3.1 mi SSE 3.5 mph - N/A   Scattered Clouds
8:30 AM 60.8 °F 59.0 °F 94% 29.95 in 5.0 mi SSE 3.5 mph - N/A   Scattered Clouds
9:00 AM 69.8 °F 60.8 °F 73% 29.95 in 5.0 mi South 3.5 mph - N/A   Mostly Cloudy
9:30 AM 73.4 °F 60.8 °F 65% 29.95 in 5.0 mi Variable 2.3 mph - N/A   Mostly Cloudy
10:00 AM 76 °F 61 °F 50% 29.96 in 5 mi South 5.8 mph - -   Scattered Clouds
10:00 AM 77.0 °F 60.8 °F 57% 29.95 in 5.0 mi South 5.8 mph - N/A   Mostly Cloudy
10:30 AM 78.8 °F 60.8 °F 54% 29.98 in 5.0 mi South 3.5 mph - N/A   Mostly Cloudy
11:00 AM 71.6 °F 57.2 °F 60% 29.98 in 5.0 mi WNW 6.9 mph - N/A   Mostly Cloudy
11:30 AM 73.4 °F 59.0 °F 61% 29.98 in 3.1 mi WNW 5.8 mph - N/A   Mostly Cloudy
12:00 PM 75.2 °F 57.2 °F 53% 29.98 in 3.7 mi WNW 3.5 mph - N/A   Mostly Cloudy
12:30 PM 75.2 °F 59.0 °F 57% 29.98 in - North - - N/A   Mostly Cloudy
1:00 PM 73 °F 59 °F 53% 29.97 in 4 mi NW 5.8 mph - -   Scattered Clouds
1:00 PM 73.4 °F 59.0 °F 61% 29.98 in 3.7 mi NW 5.8 mph - N/A   Mostly Cloudy
1:30 PM 73.4 °F 60.8 °F 65% 29.95 in 3.1 mi NNW 6.9 mph - N/A   Mostly Cloudy
2:00 PM 73.4 °F 60.8 °F 65% 29.95 in 3.1 mi North 6.9 mph - N/A   Mostly Cloudy
2:30 PM 73.4 °F 60.8 °F 65% 29.95 in 3.1 mi North 5.8 mph - N/A   Mostly Cloudy
3:00 PM 73.4 °F 60.8 °F 65% 29.92 in 3.1 mi NNW 3.5 mph - N/A   Mostly Cloudy
3:30 PM 73.4 °F 59.0 °F 61% 29.92 in 3.1 mi NNW 4.6 mph - N/A   Mostly Cloudy
4:00 PM 74 °F 60 °F 52% 29.91 in 3 mi North 4.6 mph - -   Scattered Clouds
4:00 PM 73.4 °F 60.8 °F 65% 29.92 in 3.1 mi North 4.6 mph - N/A   Mostly Cloudy
5:00 PM 73.4 °F 59.0 °F 61% 29.89 in 3.1 mi NW 3.5 mph - N/A   Mostly Cloudy
6:00 PM 73.4 °F 59.0 °F 61% 29.89 in 3.1 mi Variable 2.3 mph - N/A   Mostly Cloudy
6:30 PM 71.6 °F 59.0 °F 64% 29.92 in 3.1 mi Variable 2.3 mph - N/A   Mostly Cloudy
7:00 PM 72 °F 60 °F 56% 29.91 in 3 mi NW 3.5 mph - -   Scattered Clouds
7:00 PM 71.6 °F 59.0 °F 64% 29.92 in 3.1 mi NW 3.5 mph - N/A   Mostly Cloudy
7:30 PM 69.8 °F 59.0 °F 68% 29.92 in 3.1 mi NW 4.6 mph - N/A   Mostly Cloudy
8:00 PM 68.0 °F 59.0 °F 73% 29.92 in 3.1 mi Variable 2.3 mph - N/A   Mostly Cloudy
8:30 PM 66.2 °F 59.0 °F 78% 29.92 in 3.1 mi Calm Calm - N/A   Unknown
9:00 PM 66.2 °F 59.0 °F 78% 29.95 in 3.1 mi Calm Calm - N/A   Unknown
9:30 PM 66.2 °F 60.8 °F 83% 29.95 in 3.1 mi Calm Calm - N/A   Unknown
10:00 PM 65 °F 61 °F 82% 29.96 in 3 mi East 3.5 mph - -   Clear
10:00 PM 66.2 °F 60.8 °F 83% 29.95 in 3.1 mi East 3.5 mph - N/A   Unknown
10:30 PM 64.4 °F 60.8 °F 88% 29.95 in 3.1 mi Variable 2.3 mph - N/A   Unknown
11:00 PM 64.4 °F 60.8 °F 88% 29.95 in 3.1 mi Variable 1.2 mph - N/A   Unknown
11:30 PM 64.4 °F 62.6 °F 94% 29.92 in 3.1 mi SSE 3.5 mph - N/A   Unknown